Wind_Speed
30 30 32 31 31 31 29 28 28 26 25 23 21 18 16 14 13 11 11 11 10 10 8 7 6 5 4 4 4 5 5 5 7 9 10 12 14 15 16 18 19 19 20 20
33 33 34 34 32 32 32 31 31 30 29 27 25 22 20 18 16 15 15 14 12 12 12 9 7 7 7 6 6 6 6 6 6 7 8 10 12 13 14 16 17 18 18 19
36 35 35 36 34 34 34 34 33 33 31 30 27 26 24 22 20 20 19 18 17 15 14 12 10 9 9 8 8 8 8 8 8 9 9 9 11 13 14 15 16 17 18 19
38 36 38 36 36 37 38 37 35 34 34 32 29 27 26 25 23 24 24 22 21 18 16 15 12 11 10 10 10 10 9 9 9 10 11 11 12 13 15 16 17 17 18 20
38 36 36 35 36 38 39 38 36 36 35 33 31 30 28 28 27 26 26 25 24 22 20 17 15 14 13 12 12 12 12 12 12 13 14 14 14 15 16 17 18 18 19 21
39 37 35 33 35 37 38 38 36 35 34 34 33 32 31 30 30 29 29 26 24 23 21 19 18 17 16 15 14 14 14 14 14 15 15 15 16 17 17 18 18 19 21 22
37 36 34 32 33 35 37 37 35 34 33 33 33 32 32 32 31 30 29 28 26 23 22 21 19 20 19 18 17 17 16 16 17 17 17 17 17 17 18 19 20 21 22 24
35 35 34 31 31 33 34 34 34 33 33 33 33 33 32 32 31 31 30 27 26 25 23 22 21 22 21 20 20 20 19 19 19 19 19 19 19 19 20 21 22 23 24 26
35 34 32 30 30 32 33 34 34 34 33 33 33 32 32 31 30 30 30 29 28 26 25 24 23 23 23 23 22 22 21 21 20 20 20 21 21 21 23 24 26 28 28 28
34 34 33 30 30 30 31 31 31 31 31 31 32 31 31 31 30 29 28 27 26 26 26 26 26 25 24 24 23 23 23 23 23 23 23 23 24 24 25 26 28 28 29 30
32 30 30 29 30 30 29 29 30 31 31 31 32 31 31 30 29 29 27 25 26 26 26 26 26 25 25 25 24 24 24 25 25 25 24 24 25 26 27 28 29 29 30 32
32 30 31 30 29 29 28 28 27 28 28 28 28 28 28 29 28 26 26 25 25 25 25 25 25 24 24 24 25 25 25 26 26 25 25 26 27 28 29 30 30 32 34 35
30 30 29 27 27 28 28 28 27 26 26 25 25 25 25 25 24 24 23 23 23 24 24 24 24 24 24 24 25 25 25 26 25 25 26 27 28 29 31 32 33 34 35 34
27 27 27 27 26 27 27 26 25 25 24 24 23 23 22 22 22 22 22 22 22 22 22 23 24 24 24 24 24 25 25 25 26 25 27 28 28 29 30 31 32 32 32 32
26 26 25 25 25 24 24 24 23 22 22 21 21 20 20 20 20 20 21 21 20 20 21 21 22 23 23 23 23 23 24 25 25 26 26 26 26 27 28 28 29 30 32 34
23 23 23 23 21 20 20 20 20 20 19 19 18 18 17 17 18 17 17 18 20 20 20 20 21 21 21 21 21 21 22 23 23 23 23 23 24 25 26 27 30 32 34 37
20 19 18 18 18 18 18 18 18 18 17 17 16 15 15 16 15 15 14 15 16 16 16 17 18 19 19 19 20 20 21 21 21 22 22 23 24 26 28 31 33 35 37 38
17 17 16 16 15 16 16 16 15 15 15 14 14 14 13 13 13 12 13 13 13 14 15 15 16 17 17 17 17 18 19 20 20 22 23 25 27 29 31 33 35 36 37 39
15 14 14 15 14 13 13 12 12 12 13 12 11 11 11 11 12 13 13 13 12 13 13 13 14 14 14 14 15 17 18 20 21 23 25 27 29 30 32 33 35 36 38 39
13 12 12 12 13 12 12 12 11 11 10 10 10 10 10 9 10 10 10 11 10 11 11 12 12 13 14 15 16 18 19 21 22 24 26 28 30 31 33 34 35 37 37 38
11 11 11 12 12 12 11 10 10 9 9 10 10 9 9 8 8 7 7 8 8 9 10 11 12 13 15 16 18 20 21 23 25 27 28 30 31 32 33 34 35 36 37 37
12 12 12 11 11 11 11 11 10 10 9 9 8 7 7 7 7 7 7 8 9 10 11 12 13 15 16 18 20 22 23 25 27 28 30 31 32 33 34 34 34 35 35 34
11 12 12 11 11 11 11 11 10 10 9 8 7 6 6 6 7 8 9 10 10 11 13 14 16 18 19 21 23 24 26 27 28 29 30 31 31 32 32 32 32 32 31 30
11 11 11 11 11 11 10 10 9 8 7 7 6 6 6 7 8 9 10 11 12 14 16 17 19 20 22 23 24 25 26 27 28 28 29 29 29 29 29 28 28 28 28 28
10 10 10 9 9 8 8 8 8 7 7 7 7 8 9 9 10 11 12 14 15 17 18 19 21 22 23 23 24 25 25 26 26 26 26 26 26 26 26 25 25 25 26 26
8 8 8 7 7 7 7 7 7 7 8 8 9 9 10 11 12 13 15 16 17 18 19 20 21 22 22 23 23 24 24 24 24 25 25 24 24 23 23 23 23 23 23 23
7 6 6 6 6 6 7 7 7 7 7 8 9 10 12 13 14 15 16 17 18 19 19 20 20 21 21 21 22 22 22 22 23 23 22 22 21 21 21 21 21 22 21 21
Wind_Direction
237 236 235 236 239 241 245 250 251 254 257 259 264 270 275 279 280 282 286 287 286 294 295 301 297 300 301 298 287 274 266 254 237 230 223 222 222 223 225 227 227 232 236 240
238 240 240 241 243 245 246 250 252 254 254 256 259 265 269 272 276 280 283 291 291 290 290 292 294 295 296 290 285 275 264 260 248 240 234 232 232 232 233 233 236 240 242 245
239 240 242 244 245 247 249 250 254 255 255 256 258 262 265 267 274 281 280 282 285 288 286 281 280 282 284 278 276 271 266 259 252 246 241 243 244 239 240 240 243 247 248 250
243 242 242 243 246 248 250 252 254 254 254 257 260 263 266 268 271 273 278 279 281 281 277 275 272 271 273 272 269 267 268 268 264 261 255 251 250 249 247 246 249 253 257 259
244 244 244 243 244 246 248 251 252 253 254 255 257 262 266 268 271 273 275 277 275 272 272 270 266 267 270 268 266 264 263 265 266 266 263 260 259 259 256 255 256 261 267 266
245 246 245 241 241 244 246 248 249 252 255 256 257 261 268 271 270 270 270 270 267 264 263 262 264 264 266 264 265 264 265 264 265 267 270 270 266 266 266 264 265 267 270 271
243 246 245 241 240 242 245 248 250 253 257 258 259 263 266 268 268 268 268 265 262 260 255 260 265 266 267 263 262 263 265 266 263 266 270 271 270 270 271 273 272 271 272 276
241 243 244 243 241 242 246 249 251 253 256 259 262 265 266 267 268 265 267 261 256 259 259 260 262 265 265 263 261 262 264 264 263 266 268 269 268 271 274 276 276 275 275 278
238 241 243 243 242 244 247 250 251 253 257 260 262 265 266 267 266 266 262 258 259 260 259 260 261 264 266 266 265 264 265 266 268 270 272 273 273 276 277 278 278 279 279 279
236 240 242 244 244 244 247 250 252 254 256 258 260 263 264 266 265 263 262 259 258 257 258 260 260 260 262 265 264 264 265 270 270 272 274 277 277 278 279 280 281 280 281 280
235 237 240 243 244 244 246 250 254 254 255 258 261 262 262 264 263 263 262 257 257 258 259 258 258 259 262 264 265 266 269 272 273 275 275 276 277 279 280 281 281 281 280 281
235 237 241 241 242 247 251 254 256 257 258 258 258 259 261 263 263 262 259 256 255 256 258 258 258 259 264 265 267 267 270 273 274 275 276 277 277 279 281 282 281 280 280 281
238 239 239 243 247 251 254 255 257 258 258 257 259 261 263 265 262 258 255 254 255 256 256 257 259 260 262 263 264 266 269 273 275 276 278 281 281 281 281 280 280 281 282 283
239 240 242 244 247 249 251 252 254 256 257 258 259 260 261 261 261 255 252 253 254 256 256 257 259 260 261 262 264 267 268 270 273 276 278 278 278 280 282 283 284 284 285 287
237 239 240 241 242 243 247 249 252 253 253 255 256 256 257 258 260 256 252 252 253 254 255 256 258 260 261 263 266 267 268 270 272 275 276 276 278 281 283 284 285 287 289 291
234 234 236 237 237 242 248 249 249 249 249 250 251 252 252 253 253 252 251 252 251 252 254 255 256 259 260 261 263 265 267 269 271 274 276 278 280 283 284 286 288 290 291 292
228 228 229 232 234 238 244 246 245 244 243 243 244 246 248 248 247 250 252 251 252 252 252 253 255 259 260 262 265 269 272 274 276 278 281 282 283 285 287 289 291 292 292 293
222 221 222 223 226 230 236 236 233 233 234 236 237 240 240 240 243 245 246 246 249 250 252 255 259 261 265 266 269 272 275 277 279 281 283 285 286 288 290 291 292 293 294 295
214 215 216 217 219 224 228 226 224 223 225 227 230 230 231 236 243 244 241 243 249 253 253 257 259 261 264 269 275 278 279 281 282 285 287 289 290 292 293 294 295 296 297 298
202 204 205 204 207 211 214 214 213 213 214 217 218 219 222 230 235 235 238 242 246 249 254 258 261 265 271 274 279 282 285 287 289 290 291 292 293 294 295 296 296 297 298 299
191 194 193 191 189 191 194 196 197 198 200 206 209 210 214 217 223 233 240 243 247 254 259 265 271 275 277 280 284 286 288 290 291 292 293 294 295 296 297 297 298 298 299 301
179 181 181 179 180 184 187 189 191 193 196 198 196 198 207 219 233 241 245 253 262 267 272 276 279 281 283 286 288 289 291 293 294 295 296 296 297 298 298 299 300 301 302 303
175 179 180 182 184 185 185 186 186 186 185 187 195 210 223 236 247 255 262 270 277 281 281 282 284 286 288 290 292 293 294 295 296 296 297 297 298 299 300 301 302 303 304 305
163 166 169 174 177 178 178 178 182 187 193 201 213 226 240 253 261 268 273 277 281 283 285 287 289 290 291 292 294 295 296 296 296 297 299 300 301 302 302 302 304 305 306 307
159 164 167 167 175 182 187 190 194 199 208 217 233 249 258 266 270 275 280 283 284 286 289 291 292 293 294 295 296 296 297 298 300 301 303 304 304 305 304 304 305 307 309 310
161 165 169 176 183 190 196 205 215 224 233 244 252 258 264 270 275 281 285 287 288 290 291 292 293 294 295 296 297 298 299 301 303 304 305 306 307 308 309 309 310 311 313 315
163 166 171 177 188 202 212 219 227 238 247 254 261 266 271 276 281 285 287 290 292 292 293 293 294 294 295 296 297 299 301 303 304 305 307 309 309 310 311 313 315 316 318 320
Height
5806 5809 5811 5813 5815 5816 5817 5818 5818 5819 5819 5821 5822 5823 5823 5824 5824 5825 5826 5826 5826 5826 5826 5825 5824 5824 5824 5823 5823 5822 5822 5822 5822 5823 5823 5825 5826 5827 5829 5830 5832 5833 5835 5836
5800 5802 5804 5807 5809 5811 5812 5813 5812 5813 5814 5816 5817 5818 5819 5820 5821 5822 5822 5822 5822 5823 5823 5823 5822 5822 5822 5822 5821 5821 5821 5821 5821 5821 5821 5822 5823 5824 5825 5827 5828 5829 5830 5831
5793 5795 5797 5800 5803 5804 5805 5806 5807 5807 5809 5810 5812 5813 5814 5815 5816 5817 5819 5819 5820 5820 5820 5820 5820 5820 5820 5819 5819 5819 5819 5819 5819 5819 5819 5820 5821 5821 5822 5823 5824 5825 5825 5826
5785 5788 5790 5796 5796 5796 5796 5797 5799 5800 5802 5804 5806 5807 5808 5809 5811 5812 5813 5814 5814 5815 5814 5815 5816 5816 5817 5816 5816 5816 5816 5817 5817 5817 5817 5818 5818 5818 5819 5819 5820 5820 5821 5821
5776 5778 5782 5786 5786 5787 5788 5789 5791 5793 5796 5797 5798 5800 5801 5803 5804 5805 5806 5807 5808 5809 5810 5810 5811 5812 5812 5812 5813 5813 5813 5814 5814 5814 5814 5814 5814 5814 5814 5814 5815 5815 5815 5815
5767 5770 5773 5777 5778 5778 5781 5781 5784 5787 5789 5791 5792 5793 5795 5796 5797 5799 5799 5799 5800 5802 5803 5804 5806 5807 5807 5808 5808 5808 5809 5809 5809 5809 5810 5810 5810 5810 5809 5809 5810 5810 5810 5809
5759 5761 5764 5768 5770 5772 5774 5776 5779 5781 5783 5784 5785 5787 5788 5789 5789 5790 5791 5792 5793 5795 5796 5798 5800 5802 5802 5802 5803 5804 5804 5804 5803 5804 5805 5805 5805 5805 5805 5805 5804 5804 5803 5803
5751 5753 5758 5760 5763 5765 5766 5768 5771 5773 5775 5776 5777 5779 5780 5781 5782 5782 5783 5784 5786 5788 5789 5791 5794 5795 5795 5796 5798 5798 5799 5799 5798 5799 5800 5800 5799 5799 5799 5799 5798 5797 5796 5795
5743 5747 5749 5752 5755 5757 5758 5760 5763 5765 5768 5769 5770 5771 5772 5772 5773 5774 5775 5776 5778 5781 5783 5785 5786 5788 5789 5790 5791 5792 5792 5792 5793 5793 5794 5794 5793 5793 5792 5792 5791 5789 5788 5787
5735 5737 5741 5744 5747 5749 5750 5752 5755 5757 5759 5761 5762 5763 5763 5764 5764 5765 5767 5768 5770 5773 5775 5777 5778 5780 5781 5783 5784 5785 5785 5785 5786 5786 5786 5786 5786 5786 5785 5784 5783 5781 5780 5778
5727 5730 5733 5736 5738 5741 5743 5745 5746 5749 5751 5752 5753 5755 5755 5756 5756 5758 5759 5761 5764 5766 5768 5769 5770 5772 5774 5775 5777 5778 5778 5779 5779 5778 5778 5778 5779 5778 5777 5776 5775 5773 5771 5769
5720 5723 5726 5729 5731 5733 5736 5737 5739 5741 5743 5744 5745 5747 5748 5748 5749 5751 5752 5754 5756 5759 5761 5762 5763 5765 5767 5768 5769 5770 5770 5771 5771 5771 5771 5771 5770 5769 5768 5767 5766 5765 5762 5761
5713 5716 5719 5722 5724 5726 5728 5730 5732 5733 5735 5736 5738 5740 5741 5741 5742 5744 5746 5747 5750 5752 5754 5756 5757 5759 5760 5762 5762 5763 5763 5764 5764 5764 5763 5763 5762 5761 5760 5758 5757 5755 5753 5750
5706 5709 5712 5715 5717 5719 5721 5723 5725 5727 5728 5730 5731 5733 5734 5735 5736 5737 5739 5741 5743 5745 5747 5749 5750 5752 5753 5754 5755 5756 5756 5756 5756 5756 5756 5755 5754 5753 5751 5749 5747 5745 5743 5740
5699 5702 5705 5708 5710 5713 5715 5717 5719 5721 5722 5724 5725 5727 5728 5730 5731 5732 5734 5736 5737 5739 5740 5742 5743 5745 5746 5747 5748 5748 5748 5749 5749 5748 5747 5746 5745 5744 5742 5740 5738 5736 5733 5731
5693 5696 5699 5702 5705 5707 5709 5710 5712 5715 5716 5718 5720 5721 5723 5724 5726 5727 5728 5730 5732 5733 5735 5736 5737 5739 5739 5740 5741 5741 5741 5741 5741 5740 5739 5738 5737 5736 5734 5732 5730 5727 5724 5720
5688 5691 5693 5696 5699 5702 5704 5705 5707 5709 5711 5713 5715 5717 5718 5720 5721 5722 5724 5725 5727 5728 5729 5730 5732 5733 5733 5734 5734 5734 5735 5734 5734 5733 5732 5731 5729 5727 5725 5723 5720 5717 5713 5709
5683 5686 5689 5692 5694 5697 5699 5701 5703 5705 5707 5708 5710 5712 5714 5716 5717 5718 5720 5721 5722 5724 5725 5726 5727 5727 5728 5728 5728 5728 5728 5727 5726 5725 5724 5723 5721 5718 5716 5713 5709 5706 5702 5697
5679 5682 5684 5687 5690 5693 5695 5697 5699 5701 5703 5705 5707 5709 5710 5712 5714 5715 5716 5717 5719 5720 5721 5721 5722 5723 5723 5723 5722 5722 5722 5721 5719 5718 5716 5714 5712 5709 5706 5702 5698 5695 5690 5686
5676 5679 5681 5684 5687 5690 5692 5695 5697 5699 5701 5703 5705 5707 5708 5710 5711 5712 5713 5714 5715 5716 5717 5717 5718 5717 5717 5717 5717 5716 5715 5714 5712 5710 5708 5705 5702 5699 5696 5692 5688 5684 5679 5675
5674 5677 5680 5683 5685 5688 5690 5693 5695 5697 5699 5701 5703 5704 5706 5707 5709 5709 5710 5711 5712 5713 5713 5713 5713 5712 5712 5711 5711 5709 5708 5706 5704 5702 5699 5696 5693 5689 5686 5682 5678 5674 5669 5665
5674 5676 5679 5681 5684 5687 5689 5692 5694 5696 5698 5700 5701 5703 5704 5705 5706 5707 5708 5709 5709 5709 5709 5708 5708 5707 5706 5705 5704 5702 5700 5698 5695 5693 5690 5687 5683 5679 5676 5672 5668 5663 5659 5655
5673 5676 5679 5681 5683 5686 5688 5691 5693 5695 5697 5699 5700 5701 5703 5703 5704 5705 5705 5705 5705 5704 5704 5703 5703 5701 5700 5698 5696 5694 5692 5690 5687 5684 5681 5677 5674 5670 5666 5662 5658 5654 5650 5646
5674 5676 5679 5681 5683 5686 5688 5690 5692 5694 5696 5697 5698 5699 5700 5701 5701 5701 5701 5701 5700 5700 5699 5698 5696 5695 5693 5691 5689 5686 5684 5681 5679 5675 5672 5669 5665 5662 5658 5654 5650 5646 5643 5639
5675 5677 5680 5682 5684 5686 5688 5689 5691 5693 5694 5695 5696 5697 5697 5697 5697 5697 5697 5696 5695 5694 5693 5691 5690 5688 5686 5683 5681 5679 5676 5674 5671 5667 5664 5661 5657 5654 5650 5646 5643 5639 5636 5632
5676 5678 5680 5682 5684 5686 5687 5689 5690 5691 5692 5693 5693 5693 5694 5693 5693 5692 5692 5691 5689 5688 5686 5685 5683 5681 5678 5676 5674 5671 5669 5666 5663 5660 5657 5653 5650 5647 5643 5639 5636 5633 5629 5625
5677 5679 5680 5682 5683 5685 5686 5687 5688 5689 5689 5690 5690 5690 5690 5689 5688 5687 5686 5685 5683 5682 5680 5678 5676 5674 5672 5669 5667 5664 5662 5659 5656 5653 5650 5647 5644 5640 5637 5633 5630 5627 5623 5620